Weather History for KISQ - April, 2014

Change the Weather History Date:

Sunday, April 27, 2014

  Actual Average Record
Temperature  
Mean Temperature 38 °F -  
Max Temperature 49 °F 52 °F 82 °F (1990)
Min Temperature 26 °F 32 °F 20 °F (1972)
Degree Days  
Heating Degree Days 28    
Moisture  
Dew Point 24 °F    
Average Humidity 60    
Maximum Humidity 92    
Minimum Humidity 35    
Precipitation  
Precipitation 0.00 in - - ()
Sea Level Pressure  
Sea Level Pressure 30.19 in    
Wind  
Wind Speed 8 mph (East)    
Max Wind Speed 22 mph    
Max Gust Speed 29 mph    
Visibility 10 miles    
Events      
Averages and records for this station are not official NWS values.
T = Trace of Precipitation, MM = Missing Value Source: NWS Daily Summary

Daily Weather History Graph

Daily Weather History Graph

Search for Another Location

Airport or City:

Trip Planner

Search our weather history database for the weather conditions in past years. The results will help you decide how hot, cold, wet, or windy it might be!

Date:

Astronomy

Apr. 27, 2014 Rise Set
Actual Time 6:37 AM EDT 8:47 PM EDT
Civil Twilight 6:05 AM EDT 9:20 PM EDT
Nautical Twilight 5:25 AM EDT 10:00 PM EDT
Astronomical Twilight 4:40 AM EDT 10:45 PM EDT
Moon 5:44 AM EDT (4/27) 7:16 PM EDT (4/27)
Length of Visible Light 15h 14m
Length of Day
14h 09m
Waning Crescent, 3% of the Moon is Illuminated
Apr 27
Waning Crescent
Apr 29
New
May 6
First Quarter
May 14
Full
May 21
Last Quarter

Hourly Weather History & Observations

Time (EDT) Temp. Windchill Dew Point Humidity Pressure Visibility Wind Dir Wind Speed Gust Speed Precip Events Conditions
12:15 AM 28.0 °F 21.7 °F 25.3 °F 90% 30.14 in 10.0 mi North 5.8 mph - N/A   Clear
12:34 AM 27.9 °F 20.6 °F 25.2 °F 90% 30.17 in 10.0 mi NNW 6.9 mph - N/A   Clear
12:55 AM 28.8 °F 21.7 °F 25.7 °F 88% 30.17 in 10.0 mi North 6.9 mph - N/A   Clear
1:14 AM 28.4 °F 20.4 °F 25.5 °F 89% 30.18 in 10.0 mi North 8.1 mph - N/A   Clear
1:35 AM 28.4 °F 22.2 °F 25.3 °F 88% 30.19 in 10.0 mi West 5.8 mph - N/A   Clear
1:54 AM 28.0 °F 22.8 °F 24.8 °F 88% 30.19 in 10.0 mi North 4.6 mph - N/A   Clear
2:14 AM 28.4 °F 23.3 °F 25.7 °F 90% 30.20 in 10.0 mi NNW 4.6 mph - N/A   Clear
2:35 AM 28.2 °F 24.4 °F 25.5 °F 90% 30.20 in 10.0 mi NNW 3.5 mph - N/A   Clear
2:54 AM 26.2 °F 19.6 °F 24.1 °F 92% 30.20 in 10.0 mi WNW 5.8 mph - N/A   Clear
3:15 AM 27.3 °F 23.4 °F 25.2 °F 92% 30.19 in 10.0 mi North 3.5 mph - N/A   Clear
3:35 AM 27.5 °F 23.6 °F 25.3 °F 92% 30.19 in 10.0 mi North 3.5 mph - N/A   Clear
3:54 AM 27.5 °F 21.1 °F 25.5 °F 92% 30.20 in 10.0 mi West 5.8 mph - N/A   Clear
4:15 AM 27.5 °F 23.6 °F 25.3 °F 92% 30.20 in 10.0 mi NNE 3.5 mph - N/A   Clear
4:35 AM 28.0 °F - 24.3 °F 86% 30.20 in 10.0 mi North - - N/A   Clear
4:54 AM 27.5 °F - 23.9 °F 86% 30.20 in 10.0 mi North - - N/A   Clear
5:15 AM 28.4 °F - 23.9 °F 83% 30.20 in 10.0 mi North - - N/A   Clear
5:34 AM 28.4 °F 23.3 °F 23.9 °F 83% 30.20 in 10.0 mi ENE 4.6 mph - N/A   Clear
5:54 AM 28.8 °F 23.7 °F 23.9 °F 82% 30.20 in 10.0 mi East 4.6 mph - N/A   Clear
6:15 AM 29.5 °F 22.5 °F 23.9 °F 80% 30.19 in 10.0 mi East 6.9 mph - N/A   Clear
6:34 AM 30.0 °F 24.1 °F 23.7 °F 77% 30.20 in 10.0 mi East 5.8 mph - N/A   Clear
6:55 AM 29.3 °F 24.3 °F 23.7 °F 80% 30.20 in 10.0 mi East 4.6 mph - N/A   Clear
7:15 AM 30.0 °F 25.2 °F 24.3 °F 79% 30.21 in 10.0 mi East 4.6 mph - N/A   Clear
7:34 AM 32.0 °F 26.4 °F 24.8 °F 75% 30.23 in 10.0 mi East 5.8 mph - N/A   Clear
7:55 AM 33.3 °F 27.9 °F 25.3 °F 73% 30.23 in 10.0 mi East 5.8 mph - N/A   Clear
8:15 AM 34.9 °F 29.9 °F 25.2 °F 68% 30.23 in 10.0 mi East 5.8 mph - N/A   Scattered Clouds
8:34 AM 36.7 °F 30.5 °F 25.7 °F 64% 30.23 in 10.0 mi ESE 8.1 mph - N/A   Clear
8:55 AM 37.6 °F 30.0 °F 25.3 °F 61% 30.23 in 10.0 mi ESE 11.5 mph 20.7 mph N/A   Clear
9:14 AM 38.3 °F 31.9 °F 25.2 °F 59% 30.24 in 10.0 mi ESE 9.2 mph 21.9 mph N/A   Clear
9:34 AM 39.0 °F 32.3 °F 25.2 °F 58% 30.23 in 10.0 mi ESE 10.4 mph 18.4 mph N/A   Clear
9:55 AM 39.2 °F 33.6 °F 24.4 °F 56% 30.23 in 10.0 mi ESE 8.1 mph 20.7 mph N/A   Clear
10:14 AM 40.8 °F 35.6 °F 23.9 °F 51% 30.24 in 10.0 mi ESE 8.1 mph 19.6 mph N/A   Clear
10:35 AM 41.0 °F 35.2 °F 24.3 °F 51% 30.25 in 10.0 mi ESE 9.2 mph - N/A   Clear
10:55 AM 42.3 °F 36.3 °F 25.0 °F 50% 30.24 in 10.0 mi ESE 10.4 mph - N/A   Clear
11:14 AM 42.6 °F 37.2 °F 24.3 °F 48% 30.23 in 10.0 mi SE 9.2 mph 18.4 mph N/A   Clear
11:35 AM 43.0 °F 36.8 °F 24.3 °F 48% 30.23 in 10.0 mi SE 11.5 mph 17.3 mph N/A   Clear
11:55 AM 42.6 °F 36.3 °F 24.3 °F 48% 30.23 in 10.0 mi SE 11.5 mph 19.6 mph N/A   Clear
12:14 PM 43.0 °F 36.0 °F 24.1 °F 47% 30.23 in 10.0 mi ESE 13.8 mph 23.0 mph N/A   Clear
12:35 PM 43.9 °F 36.8 °F 23.9 °F 45% 30.21 in 10.0 mi ESE 15.0 mph 23.0 mph N/A   Clear
12:55 PM 44.2 °F 37.3 °F 23.9 °F 45% 30.21 in 10.0 mi SE 15.0 mph 23.0 mph N/A   Clear
1:14 PM 43.3 °F 35.8 °F 24.3 °F 47% 30.22 in 10.0 mi ESE 16.1 mph 24.2 mph N/A   Clear
1:35 PM 43.7 °F 37.3 °F 24.6 °F 47% 30.21 in 10.0 mi SE 12.7 mph 27.6 mph N/A   Clear
1:54 PM 45.3 °F 39.3 °F 25.0 °F 45% 30.20 in 10.0 mi ESE 12.7 mph 23.0 mph N/A   Clear
2:15 PM 45.5 °F 39.2 °F 24.3 °F 43% 30.20 in 10.0 mi ESE 13.8 mph 21.9 mph N/A   Clear
2:35 PM 44.8 °F 38.0 °F 24.4 °F 45% 30.20 in 10.0 mi ESE 15.0 mph 24.2 mph N/A   Clear
2:54 PM 46.4 °F 40.7 °F 24.6 °F 42% 30.19 in 10.0 mi ESE 12.7 mph 21.9 mph N/A   Clear
3:15 PM 47.5 °F - 24.4 °F 41% 30.19 in 10.0 mi ESE 12.7 mph 19.6 mph N/A   Clear
3:35 PM 48.7 °F - 25.2 °F 40% 30.18 in 10.0 mi East 16.1 mph 19.6 mph N/A   Clear
4:15 PM 48.4 °F - 23.4 °F 37% 30.16 in 10.0 mi ESE 16.1 mph 23.0 mph N/A   Clear
4:35 PM 48.6 °F - 23.5 °F 37% 30.16 in 10.0 mi East 15.0 mph 21.9 mph N/A   Clear
4:54 PM 49.3 °F - 22.5 °F 35% 30.15 in 10.0 mi East 21.9 mph 28.8 mph N/A   Clear
5:15 PM 47.7 °F - 22.3 °F 37% 30.16 in 10.0 mi East 16.1 mph 26.5 mph N/A   Clear
5:34 PM 47.3 °F - 22.1 °F 37% 30.16 in 10.0 mi East 15.0 mph 24.2 mph N/A   Clear
5:55 PM 46.4 °F 40.1 °F 23.4 °F 40% 30.16 in 10.0 mi East 15.0 mph 28.8 mph N/A   Clear
6:15 PM 46.0 °F 39.6 °F 23.7 °F 42% 30.16 in 10.0 mi East 15.0 mph 20.7 mph N/A   Clear
6:34 PM 45.5 °F 39.9 °F 23.7 °F 42% 30.15 in 10.0 mi East 11.5 mph 21.9 mph N/A   Clear
6:55 PM 45.5 °F - 24.1 °F 43% 30.14 in 10.0 mi North - - N/A   Clear
7:15 PM 44.6 °F 38.4 °F 23.7 °F 44% 30.15 in 10.0 mi East 12.7 mph 19.6 mph N/A   Clear
7:34 PM 44.2 °F 38.4 °F 23.9 °F 45% 30.16 in 10.0 mi East 11.5 mph 20.7 mph N/A   Clear
7:55 PM 44.2 °F 38.0 °F 23.7 °F 44% 30.16 in 10.0 mi East 12.7 mph 18.4 mph N/A   Clear
8:14 PM 44.2 °F 38.8 °F 23.2 °F 43% 30.17 in 10.0 mi East 10.4 mph 18.4 mph N/A   Clear
8:34 PM 43.7 °F 37.7 °F 23.0 °F 44% 30.18 in 10.0 mi East 11.5 mph 16.1 mph N/A   Clear
8:55 PM 42.8 °F 38.0 °F 23.4 °F 46% 30.19 in 10.0 mi East 8.1 mph - N/A   Clear
9:14 PM 42.3 °F 37.9 °F 23.4 °F 47% 30.19 in 10.0 mi East 6.9 mph - N/A   Clear
9:35 PM 42.1 °F 37.1 °F 23.7 °F 48% 30.19 in 10.0 mi East 8.1 mph - N/A   Clear
9:54 PM 42.8 °F 37.5 °F 23.9 °F 47% 30.19 in 10.0 mi East 9.2 mph - N/A   Clear
10:14 PM 42.1 °F 39.2 °F 24.3 °F 49% 30.20 in 10.0 mi East 4.6 mph - N/A   Clear
10:35 PM 41.5 °F 37.1 °F 24.6 °F 51% 30.20 in 10.0 mi ENE 6.9 mph - N/A   Clear
10:54 PM 41.2 °F 36.6 °F 25.0 °F 53% 30.19 in 10.0 mi ENE 6.9 mph - N/A   Scattered Clouds
11:15 PM 41.2 °F 36.0 °F 25.2 °F 53% 30.18 in 10.0 mi ENE 8.1 mph - N/A   Mostly Cloudy
11:35 PM 41.4 °F 36.8 °F 24.8 °F 52% 30.18 in 10.0 mi ENE 6.9 mph - N/A   Overcast
11:54 PM 41.2 °F 35.5 °F 24.8 °F 52% 30.17 in 10.0 mi East 9.2 mph - N/A   Overcast